Location: Newark
(40.7066°N, 111.8219°W)
Time: 10:10:32
(UTC+00:00)

Transit 2A Rocket - Pass Details

Date: 21 November 2019
Orbit: 594 x 909 km, 66.7° (Epoch: 15 December)

Event Time Altitude Azimuth Distance (km) Brightness Sun altitude
Rises 14:53:59 0° 308° (NW) 2,873 7.3 4.7°
Reaches altitude 10° 14:57:23 10° 279° (W) 2,003 6.6 5.2°
Maximum altitude 14:59:20 13° 253° (WSW) 1,852 6.7 5.5°
Drops below altitude 10° 15:01:21 10° 227° (SW) 2,059 7.1 5.8°
Sets 15:04:58 0° 200° (SSW) 3,036 8.3 6.4°
